Tracking 29892 objects as of 21-Nov-2024
HD Live streaming from Space Station
objects crossing your sky now

CZ-6A DEB

Track CZ-6A DEB now!
10-day predictions


NORAD ID: 54458
Int'l Code: 2022-151GJ
Perigee: 702.6 km
Apogee: 925.4 km
Inclination: 99.1 °
Period: 101.0 minutes
Semi major axis: 7184 km
RCS: Unknown
Launch date: November 11, 2022
Source: People's Republic of China (PRC)
Launch site: Taiyaun Space Center, China (TSC)

Note: This is SATELLITE DEBRIS
Your satellite tracking list
Your tracking list is empty




NASA's NSSDC Master Catalog

Two Line Element Set (TLE):
1 54458U 22151GJ  24324.55932211  .00004787  00000-0  18030-2 0  9990
2 54458  99.0747   3.1868 0155060  39.3433 321.8889 14.25490302104624
Source of the keplerian elements: AFSPC